Location: Badenscheuern
(48.7667°N, 8.2167°E)
Time: 21:27:58
(UTC+00:00)

Daily predictions for brighter satellites

Satellite Brightness Start Highest point End
(mag) Time Altitude Azimuth Time Altitude Azimuth Time Altitude Azimuth
CENTAUR R/B 4.2 18:43:26 10° NW 18:51:11 48° WSW 18:59:33 10° S
CSL-04 Rocket 4.0 18:47:23 10° S 18:52:40 70° WSW 18:57:57 10° NNW
CZ-2C R/B 2.9 18:49:18 10° N 18:54:29 74° WNW 18:59:43 10° SSW
Cosmos 1992 Rocket 4.3 18:50:29 10° NNW 18:55:36 53° ENE 19:00:41 10° SE
DMSP B5D2-2 4.1 18:51:54 10° NNE 18:57:10 75° ESE 19:02:25 10° S
Cosmos 2360 Rocket 2.8 18:52:20 10° NW 18:57:55 58° WSW 19:03:25 10° S
ATLAS 3B R/B 3.0 18:51:22 10° NW 18:58:17 61° NE 19:05:29 10° ESE
Cosmos 2058 Rocket 3.6 18:54:29 10° SSE 18:58:29 37° E 19:02:30 10° NNE
Cosmos 1689 Rocket 3.2 18:58:25 10° N 19:01:11 46° WNW 19:03:53 10° SSW
COSMOS 2428 3.0 18:55:46 10° NNW 19:01:27 58° ENE 19:07:06 10° SE
Cosmos 1953 Rocket 3.5 18:57:40 10° N 19:02:04 76° E 19:06:23 10° SSE
COSMOS 2487 2.7 18:59:00 10° S 19:02:14 44° ESE 19:05:31 10° NNE
USA 186 1.8 19:00:21 10° S 19:03:34 80° WSW 19:06:42 10° NNW
SME Rocket 3.1 19:01:33 10° NNE 19:05:22 88° WNW 19:10:05 10° SSW
Cosmos 1092 Rocket 4.1 18:59:14 10° N 19:05:29 65° ENE 19:11:38 10° SSE
USA 215 3.7 18:59:14 10° E 19:05:38 59° NNE 19:12:03 10° NW
Cosmos 2333 4.4 19:00:43 10° NNW 19:06:32 84° WSW 19:12:16 10° SSE
Cosmos 1833 4.3 19:03:30 10° SSW 19:09:08 89° WNW 19:14:51 10° NNE
Cosmos 1818 4.3 19:07:20 10° S 19:12:04 31° ESE 19:16:50 10° NE
FALCON 9 DEB 4.2 19:09:59 10° SSW 19:12:50 24° SE 19:15:40 10° E
NOSS 0 Rocket 4.4 19:07:20 10° NNW 19:13:21 48° NE 19:19:06 11° SE
ERS-2 2.7 19:11:06 10° N 19:14:43 61° WNW 19:18:18 10° SSW
Cosmos 2219 Rocket 2.2 19:09:12 10° NNW 19:14:55 82° ENE 19:20:37 10° SSE
Cosmos 44 4.0 19:11:49 10° S 19:16:28 37° ESE 19:21:20 10° NE
Resurs 01 Rocket 2.4 19:12:52 10° SE 19:16:56 36° ENE 19:21:02 10° N
Cosmos 1455 2.2 19:16:06 10° S 19:19:44 53° E 19:23:24 10° NNE
ATLAS 5 CENTAUR R/B 3.6 19:19:40 10° W 19:23:21 29° NNW 19:27:32 10° NNE
Resurs 1-3 3.6 19:23:57 10° SSE 19:28:19 74° ENE 19:32:43 10° N
Cosmos 1633 4.2 19:25:55 10° NNE 19:28:33 19° ENE 19:30:05 15° E
Cosmos 1356 4.1 19:26:51 10° N 19:30:03 35° ENE 19:32:13 17° SE
IGS 5A 4.1 19:27:42 14° SE 19:30:55 39° ENE 19:34:47 10° N
Lacrosse 5 rocket 3.0 19:27:20 10° W 19:31:06 34° NNW 19:35:04 10° NE
ATLAS 5 CENTAUR R/B 1.7 19:29:54 10° WNW 19:31:39 33° SW 19:33:14 14° SSE
Cosmos 405 Rocket 3.2 19:30:32 10° N 19:34:26 47° ENE 19:37:21 16° SE
Cosmos 1428 Rocket 4.5 19:28:54 10° N 19:35:11 83° E 19:41:29 10° S
Cosmos 2237 Rocket 2.7 19:36:12 10° NNW 19:41:40 47° NE 19:45:36 18° ESE
SJ-6B 3.9 19:38:34 10° S 19:42:06 41° W 19:45:41 10° NNW
Cosmos 2279 Rocket 4.2 19:36:14 10° SSE 19:42:10 51° E 19:48:08 10° NNE
Exosat Rocket 3.9 19:35:41 10° NNW 19:42:31 88° WSW 19:47:11 13° SSE
SPOT 5 4.5 19:40:17 14° E 19:42:34 19° ENE 19:45:51 10° NNE
BREEZE-M DEB (TANK) 3.7 19:38:56 10° WSW 19:43:37 65° S 19:48:44 12° E
Meteor 2-10 Rocket 4.1 19:38:30 10° SSW 19:43:41 64° WNW 19:49:09 10° N
Spot 2 Rocket 4.4 19:41:32 17° ESE 19:44:38 32° ENE 19:49:07 10° N
BREEZE-M DEB (TANK) 3.9 19:42:14 10° WSW 19:45:29 80° SSE 19:54:34 10° ENE
SL-8 R/B 4.0 19:41:06 10° W 19:45:50 56° SSW 19:48:58 20° SE
CZ-2C R/B 4.3 19:43:54 10° NNE 19:47:58 34° E 19:50:38 18° SSE
Cosmos 2026 Rocket 4.1 19:42:48 10° NNW 19:48:54 79° W 19:55:00 10° S
Cosmos 405 3.9 19:46:27 10° SSW 19:49:48 49° WNW 19:53:13 10° N
OBJECT-B 2.7 19:47:42 10° SSW 19:50:33 29° W 19:53:27 10° NNW
Terra 3.6 19:50:06 14° E 19:52:09 18° ENE 19:55:18 10° NNE
BREEZE-M DEB (TANK) 4.2 19:50:36 10° WSW 19:55:05 81° NNW 20:13:50 10° ENE
NOSS 3-4 (A) 4.3 19:50:01 10° WSW 19:55:47 53° NW 20:02:06 10° NE
NOSS 3-4 (C) 4.3 19:50:07 10° WSW 19:55:53 53° NW 20:02:12 10° NE
MetOp-B 4.2 19:52:09 18° SSE 19:56:08 63° ENE 20:01:26 10° N
Cosmos 2227 Rocket 3.2 19:57:04 21° SE 19:58:42 25° ESE 20:03:11 10° NE
SPOT 1/Viking Rocket 3.8 19:58:13 22° SE 20:01:29 54° ENE 20:06:35 10° N
Cosmos 389 Rocket 2.5 20:00:15 22° S 20:02:20 57° E 20:05:50 10° NNE
Cosmos 2251 Rocket 3.5 19:57:02 10° SSW 20:02:24 84° ESE 20:07:46 10° NNE
Cosmos 2333 Rocket 3.4 19:59:45 10° NW 20:05:03 39° WSW 20:10:18 10° S
Cosmos 2297 Rocket 2.8 20:02:12 16° SSE 20:05:57 35° ESE 20:11:01 10° NE
Cosmos 2266 Rocket 4.3 19:59:53 10° N 20:06:06 50° ENE 20:09:47 24° SE
Cosmos 1634 Rocket 4.3 20:00:44 10° SSW 20:07:00 72° W 20:13:16 10° N
BREEZE-M DEB (TANK) 1.4 20:05:37 10° W 20:07:56 75° SSW 20:08:17 58° SE
SPOT 3 Rocket 3.6 20:03:45 16° SSE 20:08:00 83° WSW 20:13:13 10° NNW
Cosmos 1825 3.4 20:04:40 10° NNW 20:08:13 40° W 20:11:46 10° SSW
Cosmos 2219 3.8 20:05:52 21° SSE 20:08:36 33° ESE 20:13:35 10° NE
ATLAS 2AS CENTAUR R/B 3.4 20:01:31 10° SW 20:09:24 68° NW 20:17:08 10° NE
ARIANE 5 R/B 3.1 20:09:19 29° ESE 20:11:08 45° ENE 20:15:20 10° N
Ariane Rocket 4.2 20:08:55 10° SSW 20:13:39 39° W 20:18:24 10° NNW
Orbus 7S? 3.7 20:17:07 10° WSW 20:20:08 72° NNW 20:26:12 10° NE
CZ-4C R/B 4.2 20:17:22 10° W 20:22:09 30° NNW 20:27:51 10° NE
RESURS DK-1 3.1 20:18:23 10° SW 20:22:26 54° NW 20:26:31 10° NNE
Landsat 7 4.0 20:20:37 22° S 20:23:42 73° WSW 20:28:29 10° NNW
Genesis I 3.8 20:20:19 10° NNW 20:24:13 48° NE 20:25:22 36° E
USA 245 3.1 20:24:37 41° SSE 20:25:54 78° ENE 20:29:17 10° N
Cosmos-2242 3.2 20:25:49 39° SE 20:26:54 49° E 20:31:05 10° NNE
Cosmos 2180 Rocket 4.4 20:23:19 10° S 20:29:28 86° E 20:35:39 10° N
Cosmos 1655 Rocket 3.9 20:27:43 10° N 20:34:04 87° E 20:37:46 27° S
SL-16 R/B 2.8 20:30:12 10° NNW 20:35:41 46° NE 20:37:53 31° ESE
Cosmos 1980 3.8 20:31:18 10° NNW 20:36:59 71° WSW 20:39:45 31° S
Cosmos 614 Rocket 4.2 20:32:00 10° SSW 20:37:08 70° WNW 20:42:15 10° NNE
BREEZE-M DEB (TANK) 4.3 20:34:47 10° W 20:39:40 86° N 21:00:09 10° E
Cosmos 2151 3.1 20:39:29 10° NNW 20:43:47 70° W 20:45:17 39° SSW
COSMOS 2428 4.4 20:40:39 10° NW 20:45:22 27° WSW 20:49:50 11° SSW
Meteor 2-3 Rocket 3.7 20:40:04 10° NNW 20:45:53 89° W 20:48:26 35° S
Cosmos 2344 3.8 20:40:14 10° SW 20:47:38 70° NW 20:55:50 10° NE
USA 215 3.4 20:45:38 34° SSE 20:48:39 65° SW 20:55:10 10° WNW
ATLAS 3B R/B 3.7 20:42:22 10° NW 20:48:48 39° WSW 20:53:12 20° S
FALCON 9 DEB 3.2 20:46:03 10° WSW 20:49:28 74° NNW 20:49:45 68° NNE
Meteor 1-27 4.3 20:47:48 38° SSE 20:49:55 62° E 20:55:39 10° NNE
Cosmos 1812 Rocket 4.2 20:47:57 17° SSW 20:51:16 54° WNW 20:55:40 10° N
Cosmos 2221 4.2 20:53:18 20° ENE 20:53:18 20° ENE 20:55:27 10° NE
Resurs 01 Rocket 3.4 20:50:18 13° SSW 20:53:29 28° W 20:57:20 10° NW
Cosmos 1818 4.3 20:50:04 10° WSW 20:55:24 55° NW 21:00:48 10° NNE
ERS-1 Rocket 2.9 20:54:40 49° SSE 20:56:03 82° ENE 21:01:06 10° NNW
Cosmos 407 Rocket 3.4 20:53:35 19° SSW 20:57:22 84° WNW 21:02:36 10° NNE
Cosmos 2219 Rocket 4.4 20:54:27 10° WNW 20:58:09 18° W 21:01:51 10° SW
Okean 3 Rocket 3.5 20:54:14 10° N 20:58:48 72° E 20:59:21 63° SE
Cosmos 1766 Rocket 3.3 20:58:48 10° N 21:03:10 79° E 21:03:29 73° SE
Cosmos 1633 3.9 21:00:09 10° NNW 21:03:26 33° W 21:04:10 30° WSW
CARTOSAT-1 3.8 21:04:22 50° SSW 21:05:14 63° W 21:09:32 10° NNW
Meteor 1-4 Rocket 3.7 21:10:11 33° NNE 21:10:11 33° NNE 21:12:19 10° NNE
Lacrosse 5 rocket 3.3 21:07:29 10° NW 21:11:10 28° N 21:14:12 14° ENE
Cosmos 1954 Rocket 3.9 21:12:17 62° SE 21:12:41 65° ESE 21:17:49 10° NNE
COSMOS 2455 3.0 21:18:15 50° ESE 21:18:15 50° ESE 21:24:02 10° NE
Cosmos 1869 3.4 21:18:39 73° N 21:18:39 73° N 21:22:17 10° N
SPOT 5 2.9 21:19:30 56° SW 21:20:09 63° W 21:24:52 10° NNW
Cosmos 1140 Rocket 3.9 21:18:31 21° SW 21:21:52 61° WNW 21:26:59 10° NNE
Spot 2 Rocket 4.5 21:21:42 30° SW 21:23:30 40° W 21:28:17 10° NNW
Cosmos 2237 Rocket 3.4 21:20:35 10° NW 21:25:34 33° WSW 21:27:26 27° SW
SeaSat 1 3.9 21:22:06 10° NE 21:24:38 25° ENE 21:24:38 25° ENE
Terra 1.8 21:28:59 68° SW 21:29:23 73° WSW 21:34:10 10° NNW
Timation 1 Rocket 4.2 21:33:37 63° SSE 21:34:24 71° ESE 21:40:21 10° NNE
Cosmos 2082 3.5 21:39:13 73° SE 21:39:30 75° ESE 21:45:08 10° NNE
Cosmos 2263 Rocket 3.7 21:42:46 22° ENE 21:42:46 22° ENE 21:45:27 10° NE
Cosmos 2227 Rocket 2.6 21:38:45 23° SW 21:42:19 62° WNW 21:47:57 10° NNE
USA 229 DEB 4.2 21:36:03 10° NW 21:43:09 57° NE 21:46:08 36° E
USA 229 4.3 21:36:08 10° NW 21:43:14 57° NE 21:46:15 36° E
Cosmos 468 Rocket 3.8 21:38:28 10° NNW 21:43:38 87° WSW 21:43:44 86° SSW
ARIANE 5 R/B 4.5 21:46:52 20° WSW 21:47:48 22° W 21:51:13 10° NW
Cosmos 1842 Rocket 4.0 21:49:35 58° NNE 21:49:35 58° NNE 21:53:13 10° N
Cosmos 1603 4.2 21:44:19 10° NNW 21:49:51 47° NE 21:50:37 44° ENE
Cosmos 2297 Rocket 3.2 21:44:28 10° SW 21:49:52 45° NW 21:55:19 10° NNE
Cosmos 841 Rocket 3.8 21:46:19 10° NNW 21:51:28 55° ENE 21:51:30 55° ENE
Cosmos 2219 4.1 21:47:37 12° SW 21:52:36 46° NW 21:58:02 10° NNE
H-2A R/B 4.2 21:49:39 10° N 21:53:41 50° WNW 21:53:41 50° WNW
Cosmos 1745 Rocket 4.0 21:49:36 10° N 21:55:54 65° ENE 21:56:33 61° ESE
NOSS 3-1 (A) 4.2 21:53:49 10° NW 22:01:03 65° NE 22:04:04 41° ESE
Cosmos 921 Rocket 3.9 21:58:19 10° NNW 22:01:48 43° NNE 22:01:48 43° NNE
Cosmos 1862 4.5 21:59:15 10° NNW 22:02:04 40° NW 22:02:04 40° NW
Cosmos 1763 Rocket 3.6 21:58:13 10° NNW 22:02:58 62° W 22:02:58 62° W
S3M 4.0 22:08:54 66° ESE 22:09:12 67° E 22:15:33 10° NNE
Spot 4 4.2 22:11:46 61° NNE 22:11:46 61° NNE 22:16:01 10° N
Cosmos 1805 Rocket 4.5 22:08:01 10° N 22:11:11 44° NNE 22:11:11 44° NNE
SL-16 R/B 3.2 22:14:35 10° NW 22:19:41 34° WSW 22:19:46 34° WSW
Sich 1 4.2 22:18:01 10° N 22:20:54 40° NNE 22:20:54 40° NNE
Cosmos 540 Rocket 3.7 22:17:35 10° NNW 22:22:04 66° NW 22:22:04 66° NW
NOSS 3-1 (C) 4.0 22:19:50 10° NW 22:27:16 75° SW 22:28:43 62° S
Cosmos 2221 3.8 22:30:07 36° NW 22:30:07 36° NW 22:33:29 10° N
Meteor 1-20 Rocket 4.3 22:23:40 10° N 22:29:20 69° ENE 22:29:20 69° ENE
Cosmos 1570 Rocket 4.2 22:24:34 10° NNW 22:29:21 70° N 22:29:21 70° N
Cosmos 1386 Rocket 4.4 22:28:28 10° NNW 22:34:30 72° W 22:34:38 71° WSW
Cosmos 1633 Rocket 4.5 22:31:50 10° N 22:34:39 33° NNE 22:34:39 33° NNE
Cosmos 44 Rocket 3.8 22:36:36 61° NW 22:36:36 61° NW 22:41:40 10° NE
Aureole 1 Rocket 3.7 22:38:07 73° NNW 22:38:07 73° NNW 22:42:29 10° NNE
Cosmos 1553 Rocket 4.3 22:39:11 51° WSW 22:40:01 55° WNW 22:46:00 10° N
ALOS 2 3.7 22:49:56 43° NNW 22:49:56 43° NNW 22:52:56 10° NNW
Cosmos 1741 Rocket 4.5 22:48:41 57° WNW 22:48:41 57° WNW 22:53:49 10° NNE
Cosmos 1943 3.4 22:44:02 10° NNW 22:48:59 66° WNW 22:48:59 66° WNW
Lacrosse 5 rocket 2.8 22:46:48 10° NW 22:49:47 38° NNW 22:49:47 38° NNW
ATLAS 5 CENTAUR R/B 4.4 22:52:18 10° NNW 22:56:05 21° NNE 23:00:20 10° ENE
Thor Agena Rocket 4.4 22:54:57 10° NNE 22:58:37 40° ENE 22:58:37 40° ENE
SeaSat 1 3.3 22:59:29 10° NNE 23:04:10 44° NW 23:04:24 44° WNW
COSMOS 2455 4.0 23:01:18 24° W 23:04:20 40° NW 23:10:00 10° NNE
Cosmos 2315 Rocket 3.9 23:10:31 84° W 23:10:32 84° W 23:16:57 10° N
Iridium 4 Rocket 4.0 23:11:57 56° N 23:11:57 56° N 23:16:08 10° N
Cosmos 2184 Rocket 4.3 23:06:03 10° N 23:12:18 55° ENE 23:12:34 55° E
Cosmos 1151 Rocket 4.5 23:21:43 36° N 23:21:43 36° N 23:24:20 10° N
Meteor 1-14 Rocket 4.3 23:15:49 10° N 23:21:32 80° NNE 23:21:32 80° NNE
Cosmos 968 Rocket 4.2 23:24:12 47° NE 23:24:12 47° NE 23:28:07 10° NNE
Cosmos 2263 Rocket 2.6 23:24:25 55° WNW 23:24:25 55° WNW 23:29:55 10° NNE
USA 281 3.1 23:33:03 74° ESE 23:33:37 81° ENE 23:40:14 10° NNW
USA 229 DEB 4.3 23:27:11 10° NW 23:33:33 46° WSW 23:33:33 46° WSW
USA 229 4.3 23:27:16 10° NW 23:33:40 46° WSW 23:33:40 46° WSW
Cosmos 1844 Rocket 3.4 23:39:31 43° ENE 23:39:31 43° ENE 23:43:43 10° NE
SL-4 R/B 4.4 23:41:43 21° ENE 23:41:43 21° ENE 23:43:21 10° ENE
Cosmos 2074 Rocket 3.9 23:37:09 10° N 23:43:22 87° NW 23:43:22 87° NW
Meteor 2-6 Rocket 4.4 23:48:13 62° NE 23:48:13 62° NE 23:52:50 10° NNE
Meteor 1-5 Rocket 4.3 23:42:10 10° NNW 23:47:20 72° NNW 23:47:20 72° NNW
SJ 16-02 4.1 23:56:01 10° E 23:56:01 10° E 23:56:13 10° E
